sat.trackr.live / text

‹ back to catalog

STARLINK-34919

NORAD 65802 · 2025-218M

PAYLOAD ACTIVE UNKNOWN

§ Identity

Operator
Country
US
Launch date
2025-09-26
Launch site
AFWTR
Launch vehicle
Mass (kg)
RCS (m²)

Purposes: comms

External: N2YO · Heavens-Above · Gunter

§ Orbital elements

Epoch: 2026-05-25T03:15:11.855232Z

Period
95.64 min
Inclination
97.4486°
Eccentricity
0.0002344
Mean motion
15.05659416 rev/d
Perigee alt
547.9 km
Apogee alt
551.1 km
Semi-major
6,927.6 km
B*
1.2969e-4
RAAN
7.9415°
Arg perigee
74.3683°
Mean anomaly
285.7802°
Rev number
3,647

§ Raw data

STARLINK-349191 65802U 25218M   26145.13555388  .00001814  00000+0  12969-3 0  99982 65802  97.4486   7.9415 0002344  74.3683 285.7802 15.05659416 36475

JSON: /api/v1/satellites/65802 · /tle

For live sub-satellite position, see the globe view (requires WebGL).

§ Visibility from observer

Set your observer location to see the next 7 days of passes ≥ 10°. The values pass through the URL so the page stays shareable.

No JS? Fill the form by hand. The geolocation button needs JavaScript.